Location: Ferchesar
(52.6477°N, 12.4298°E)
Time: 17:32:11
(UTC+01:00)

Explorer 7 - Pass Details

Date: 11 December 2021
Orbit: 483 x 674 km, 50.3° (Epoch: 23 January)

Event Time Altitude Azimuth Distance (km) Brightness Sun altitude
Rises 06:42:15 0° 271° (W) 2,824 - -12.5°
Reaches altitude 10° 06:44:37 10° 268° (W) 1,888 - -12.2°
Exits shadow 06:45:26 15° 266° (W) 1,573 8.6 -12.1°
Maximum altitude 06:48:51 59° 189° (S) 638 7.2 -11.6°
Drops below altitude 10° 06:52:49 10° 110° (ESE) 1,771 11.0 -11.0°
Sets 06:54:58 0° 107° (ESE) 2,631 12.4 -10.7°
